OpenBCM V1.08-5-g2f4a (Linux)

Packet Radio Mailbox

IZ3LSV

[San Dona' di P. JN]

 Login: GUEST





  
CX2SA  > KEP      11.04.20 00:05l 94 Lines 3940 Bytes #999 (0) @ ARL
BID : ARLK029
Read: GUEST
Subj: ARLK029 Keplerian data
Path: IZ3LSV<I0OJJ<I0OJJ<N6RME<CX2SA
Sent: 200410/2200Z @:CX2SA.SAL.URY.SOAM #:28476 [Salto] FBB7.00e $:ARLK029

>From cx2sa%cx2sa.sal.ury.soam@i0ojj.ampr.org Sat Apr 11 00:02:44 2020
Received: from i0ojj.ampr.org by i0ojj.ampr.org (JNOS2.0n.beta1) with SMTP
	id AA106193 ; Sat, 11 Apr 2020 00:02:44 +0200
Message-Id: <ARLK029@i0ojj.bbs>
>From: cx2sa@cx2sa.sal.ury.soam
X-JNOS-User-Port: Telnet   (i0ojj @ 44.134.32.240)  -> Sending message

From: CX2SA@CX2SA.SAL.URY.SOAM
To  : KEP@ARL


ZCZC SK29
QST de W1AW
Keplerian Bulletin 29  ARLK029
>From ARRL Headquarters
Newington, CT  April 10, 2020
To all radio amateurs

SB KEP ARL ARLK029
ARLK029 Keplerian data

Special thanks to AMSAT-NA (AMSAT.ORG) for the following Keplerian
data.

Decode 2-line elsets with the following key:
1 AAAAAU 00  0  0 BBBBB.BBBBBBBB  .CCCCCCCC  00000-0  00000-0 0  DDDZ
2 AAAAA EEE.EEEE FFF.FFFF GGGGGGG HHH.HHHH III.IIII JJ.JJJJJJJJKKKKKZ
KEY: A-CATALOGNUM B-EPOCHTIME C-DECAY D-ELSETNUM E-INCLINATION F-RAAN
G-ECCENTRICITY H-ARGPERIGEE I-MNANOM J-MNMOTION K-ORBITNUM Z-CHECKSUM

0 AO-07
1 7530U 74089B   20101.17068617 -.00000051  00000-0 -38004-4 0  9990
2 7530 101.7933  71.3118 0012418 134.1229 294.8011 12.53642858 77676
0 FO-29
1 24278U 96046B   20101.21343856 +.00000010 +00000-0 +46554-4 0  9993
2 24278 098.5737 220.0147 0350258 191.4071 167.8979 13.53097316167656
0 ISS
1 25544U 98067A   20101.69856388 -.00002713  00000-0 -41575-4 0  9998
2 25544  51.6435 322.4501 0003666 106.0114   4.2286 15.48678228221555
0 SO-50
1 27607U 02058C   20101.05464706  .00000015  00000-0  22874-4 0  9996
2 27607  64.5552 223.4913 0056570 195.0523 164.8899 14.75623546930766
0 CO-55
1 27844U 03031E   20100.98021170 +.00000035 +00000-0 +35679-4 0  9995
2 27844 098.6843 109.7427 0008718 251.4824 108.5407 14.22230452870369
0 RS-22
1 27939U 03042A   20101.51362924  .00000095  00000-0  25725-4 0  9994
2 27939  98.0779 237.2793 0012436 202.6976 157.3683 14.66849852884054
0 RS-30
1 32953U 08025A   20101.54922574  .00000037  00000-0  19437-3 0  9996
2 32953  82.5038 320.1503 0018655 200.1668 159.8680 12.43094983539199
0 KKS-1
1 33499U 09002H   20101.23085050 +.00000081 +00000-0 +19873-4 0  9997
2 33499 098.3257 314.0312 0008864 350.8731 009.2315 14.75519071602526
0 AO-71
1 37854U 11061E   20101.12158496  .00000663  00000-0  41507-4 0  9992
2 37854 101.7038 157.1284 0158560 264.9628  93.3470 15.07121151461639
0 AO-73
1 39444U 13066AE  20101.24261021 +.00000246 +00000-0 +36312-4 0  9993
2 39444 097.5600 105.2548 0059147 133.0449 227.5740 14.82092951343264
0 UKUBE 1
1 40074U 14037F   20101.41263488  .00000264  00000-0  38699-4 0  9991
2 40074  98.4544 285.6961 0004359 355.3906   4.7279 14.84228070311662
0 XW-2A
1 40903U 15049E   20101.41640852  .00002005  00000-0  47582-4 0  9996
2 40903  97.2960 150.2984 0014203 144.1443 336.6269 15.42842188255988
0 XW-2F
1 40910U 15049M   20101.53389088  .00001069  00000-0  56144-4 0  9991
2 40910  97.4678 106.0557 0013127 233.7193 247.8046 15.17819410252033
0 XW-2B
1 40911U 15049N   20101.45799774  .00000639  00000-0  36533-4 0  9992
2 40911  97.4759 104.2015 0012442 245.6602 270.9088 15.16148752251865
0 IO-86
1 40931U 15052B   20100.65893719  .00000717  00000-0  10725-4 0  9995
2 40931   5.9960 106.1065 0013429  24.2183 335.8359 14.76631669245079
0 CAS-4B
1 42759U 17034B   20101.35447958  .00000261  00000-0  29347-4 0  9999
2 42759  43.0192  41.1993 0012405 318.3722 186.9248 15.09784371155670
0 CAS-4A
1 42761U 17034D   20101.57130811  .00000292  00000-0  31220-4 0  9990
2 42761  43.0198  39.3537 0012781 320.2289 208.8218 15.09863225155700
0 AO-91
1 43017U 17073E   20101.18852679 +.00000438 +00000-0 +40234-4 0  9995
2 43017 097.7253 016.0519 0255683 272.8238 084.3739 14.78876057129079
0 AO-92
1 43137U 18004AC  20101.46431778  .00001005  00000-0  44464-4 0  9997
2 43137  97.4505 173.0734 0007640 299.7087  60.3389 15.23991854124681

Keplerian bulletins are transmitted twice weekly from W1AW.  The
next scheduled transmission of these data will be Tuesday, April 14,
2020, at 2230z on Baudot and BPSK31.
NNNN



Read previous mail | Read next mail


 14.10.2025 05:02:38lGo back Go up